RH
16 18 20 21 22 22 21 20 20 21 20 21 21 22 26 29 30 29 28 29 29 26 23 23 25 25 26 27 28 29 31 32 34 35 36 36 36 36 36 36 37 38
17 18 19 21 23 24 24 22 21 20 20 21 21 22 27 34 39 40 38 36 33 28 24 23 24 25 25 26 27 28 29 31 34 36 36 36 35 34 35 36 36 37
20 21 23 24 25 26 27 26 23 22 21 20 20 21 24 30 38 44 46 44 37 28 23 23 23 24 25 26 27 27 28 30 32 34 35 34 34 34 34 35 36 37
25 26 27 27 29 29 29 28 26 24 22 21 21 21 24 28 33 40 46 51 48 34 24 23 23 23 24 25 26 27 27 29 30 32 34 34 35 36 37 38 37 37
31 32 32 31 30 29 28 26 25 25 25 23 21 21 24 27 32 40 49 57 58 42 25 22 24 23 24 24 25 27 27 28 29 31 32 35 38 39 40 41 38 36
44 48 50 48 45 41 33 25 22 23 24 25 24 23 25 29 34 43 54 63 62 43 24 22 23 23 24 24 25 27 27 28 29 30 31 33 37 41 42 41 37 35
60 66 70 70 68 63 53 42 34 31 30 31 29 25 26 31 36 41 53 63 56 37 23 23 24 24 24 24 25 26 26 27 28 30 31 32 35 40 43 40 37 37
63 66 71 73 74 72 67 60 53 49 51 51 45 36 32 35 40 40 43 47 41 29 24 24 24 24 24 24 25 26 26 27 29 31 33 34 37 41 44 44 41 39
58 58 60 62 63 64 64 61 57 56 60 64 62 54 45 45 47 40 31 29 27 24 24 24 24 25 24 24 25 26 28 28 30 33 35 37 41 45 48 47 43 40
57 58 58 56 54 54 55 55 54 52 52 58 64 62 57 55 51 37 23 21 22 22 24 24 25 24 23 24 26 27 28 29 30 33 33 35 42 49 49 44 40 40
52 55 58 58 54 50 49 49 48 47 44 44 48 52 53 50 43 30 21 20 21 22 24 24 24 25 24 25 26 26 27 29 30 31 30 32 41 49 48 41 38 40
46 49 54 57 54 47 44 44 43 44 42 36 33 33 34 32 27 22 20 20 21 22 24 25 24 25 25 25 26 26 27 29 30 30 29 30 35 41 42 38 37 41
44 47 52 55 51 43 39 40 40 41 42 37 30 23 21 21 20 20 20 20 21 23 24 24 25 25 26 27 26 26 28 29 30 30 30 30 32 33 35 36 38 43
50 52 52 50 45 39 37 38 37 37 36 34 28 22 19 20 19 21 21 21 22 24 24 25 26 26 26 27 27 28 30 30 30 30 29 30 31 32 34 37 40 44
53 52 47 42 38 35 34 33 32 31 29 27 25 21 20 20 21 22 22 23 23 24 25 26 26 26 27 28 28 29 31 31 30 29 30 30 31 32 35 37 41 44
42 40 37 34 32 30 29 27 26 25 24 23 23 21 21 21 22 23 23 24 24 24 25 26 26 27 28 28 29 30 31 31 30 29 29 30 31 33 36 38 42 44
29 29 28 27 26 25 25 24 24 23 23 23 22 22 22 22 22 24 24 24 24 24 25 26 26 27 27 28 29 30 31 31 31 30 29 30 31 34 37 39 42 44
27 26 25 25 25 25 25 24 25 25 24 24 24 24 24 25 25 25 25 25 25 25 25 25 25 25 26 28 28 29 31 32 31 31 30 31 33 34 37 39 41 44
32 31 29 29 29 28 28 28 27 27 27 26 26 27 27 27 27 28 27 26 25 25 25 25 25 24 25 28 29 30 31 30 31 32 31 32 35 35 37 39 41 44
34 33 32 31 32 32 32 32 31 31 30 30 29 29 29 29 29 29 28 26 25 25 25 25 25 24 26 28 29 29 30 30 32 33 33 34 35 36 38 39 41 46
37 37 35 32 32 32 33 33 33 32 32 32 31 31 31 30 30 30 29 28 27 26 26 27 26 24 26 28 29 29 30 31 32 34 35 36 36 37 38 40 42 46
44 43 42 39 37 36 35 34 34 33 32 32 31 31 31 31 31 30 29 29 28 27 28 28 26 26 28 30 31 31 32 33 34 36 36 36 37 39 39 41 44 46
46 47 47 46 45 44 42 41 40 39 38 37 36 36 35 34 34 33 32 32 31 30 30 30 30 30 31 32 33 33 34 35 36 36 37 38 40 40 41 44 45 46
35 38 41 43 45 46 46 47 46 46 45 45 44 43 43 42 41 40 39 38 37 36 35 35 35 35 34 35 36 36 36 37 38 39 40 41 41 41 44 45 44 46
20 22 24 27 29 33 36 39 41 43 44 45 46 46 47 46 46 46 46 45 44 44 43 42 41 41 41 40 39 39 40 40 41 42 43 43 43 44 44 42 42 44
19 18 18 17 17 17 19 21 24 27 29 32 35 37 39 40 41 43 44 45 46 45 45 45 45 45 44 43 42 41 41 42 43 44 44 44 42 39 38 38 37 39
Wind_Speed
15 14 13 12 12 11 10 11 11 12 12 11 10 10 10 10 11 12 13 13 14 15 15 15 14 13 13 14 14 15 16 18 19 20 22 23 24 26 28 30 31 33
17 16 15 15 14 14 14 14 14 14 14 14 13 12 11 11 12 13 14 15 16 17 17 17 17 16 16 17 17 17 17 18 20 22 23 24 25 27 29 30 32 34
18 18 17 17 17 17 17 17 17 16 17 17 16 15 13 13 14 14 16 17 17 18 18 18 19 19 19 20 20 20 20 20 22 23 24 25 26 28 29 31 33 35
20 19 19 19 19 19 19 19 18 18 18 19 19 18 17 16 17 17 18 19 19 20 20 20 21 21 22 23 23 23 23 23 24 25 26 27 28 29 30 32 34 36
20 20 20 19 19 20 20 20 19 19 20 21 22 22 20 20 20 20 20 21 22 22 22 22 23 23 24 25 26 26 26 26 26 27 28 29 30 32 32 34 36 37
21 20 20 20 21 21 22 21 20 20 21 22 23 24 24 23 23 23 23 23 23 24 24 24 25 25 26 27 28 29 29 29 29 30 31 31 33 34 34 36 38 39
23 23 23 23 24 24 24 24 23 22 22 23 25 26 26 26 26 25 25 24 25 25 26 26 26 27 28 29 30 31 32 32 32 32 33 34 35 36 36 38 40 42
26 26 26 26 27 27 27 26 26 26 25 26 27 28 28 28 28 27 26 26 26 27 27 28 28 29 29 30 31 33 35 35 34 34 35 36 37 38 38 41 43 45
29 29 29 30 30 30 29 29 28 28 28 29 30 30 30 30 30 29 29 28 28 29 30 30 30 31 31 32 33 34 37 37 36 36 37 38 39 39 41 43 45 47
31 31 31 32 32 32 32 31 30 30 30 31 32 33 33 33 32 32 31 30 29 30 32 33 33 33 33 33 34 35 38 38 38 38 39 40 41 41 42 45 46 48
34 34 34 34 34 34 34 33 32 32 32 33 34 34 35 34 34 33 33 32 32 32 34 36 36 36 36 36 36 37 39 40 39 40 41 41 42 42 44 46 47 48
38 37 36 36 36 36 35 35 35 34 34 34 35 36 36 35 35 34 34 34 34 34 37 39 39 39 39 38 38 39 40 41 41 42 42 43 43 44 46 47 48 49
41 39 38 38 38 37 37 37 37 36 36 36 36 37 37 37 36 36 36 37 37 37 39 41 42 42 42 41 41 41 42 43 43 44 44 44 45 46 47 48 48 49
42 41 40 40 40 39 39 39 38 38 38 38 38 38 38 38 38 38 39 39 39 40 41 43 44 45 44 44 44 43 44 45 45 45 45 46 47 48 48 49 49 50
42 41 42 42 42 41 41 40 40 40 40 40 39 39 39 40 40 41 41 41 41 42 44 45 47 48 47 46 46 46 46 47 47 48 47 48 49 49 49 49 49 51
44 43 43 44 43 43 42 42 42 42 42 42 42 41 41 42 42 43 43 43 43 44 46 48 49 50 49 49 49 49 49 50 50 50 50 50 50 50 50 50 50 52
46 45 45 45 45 45 44 44 44 44 44 44 45 44 44 44 45 46 46 46 46 47 49 50 52 52 51 51 52 52 52 52 52 52 52 52 52 52 52 51 51 52
49 48 48 48 48 47 47 47 47 47 48 48 48 48 47 47 47 48 48 49 49 50 51 52 53 54 53 54 55 55 55 55 55 54 54 54 54 53 53 52 52 53
53 53 52 51 51 51 50 50 50 51 51 51 51 51 50 50 50 50 51 52 53 53 53 54 55 56 56 56 57 58 57 57 57 57 57 56 56 55 55 54 54 54
56 57 57 56 55 54 54 54 54 55 55 55 55 54 53 54 54 53 54 55 56 56 56 56 58 58 59 59 60 61 60 59 59 59 59 59 58 58 57 56 55 56
59 61 62 60 58 57 57 57 58 58 58 58 58 58 57 57 57 56 57 57 58 58 58 59 60 61 61 61 62 63 62 60 60 61 61 61 61 60 59 58 58 58
62 64 64 64 62 60 59 60 61 61 62 61 61 60 60 60 59 59 59 59 59 60 60 61 62 63 63 63 64 64 63 62 61 63 64 64 63 62 61 60 60 61
65 66 67 67 66 64 62 62 63 64 64 64 64 63 62 62 62 62 61 60 61 62 62 63 64 65 65 65 66 66 65 64 63 64 65 66 66 65 64 63 63 64
69 69 70 70 70 68 67 66 67 67 67 66 66 66 65 65 65 65 64 63 62 63 64 65 66 66 67 68 68 68 68 67 66 66 67 68 68 67 66 65 65 66
68 70 71 72 72 71 71 71 71 70 69 69 69 69 69 69 69 69 68 67 66 66 67 68 69 69 70 71 71 71 71 69 68 69 70 71 70 70 68 67 66 67
61 63 66 68 70 70 71 72 72 72 72 72 72 72 72 73 72 72 71 70 70 70 71 72 72 73 73 74 74 74 74 72 71 72 73 72 72 71 70 69 68 68
Wind_Direction
225 227 233 241 246 250 254 260 267 276 285 291 299 307 313 316 318 321 321 324 328 332 334 334 335 337 337 337 338 341 344 345 345 345 345 347 348 350 350 349 347 347
230 232 236 242 247 251 254 258 263 270 277 283 289 294 301 307 313 316 316 318 322 325 329 329 330 331 331 330 330 332 336 338 339 339 339 341 344 345 346 344 344 343
236 238 241 245 248 251 254 257 261 266 271 277 282 285 290 297 301 304 308 312 317 320 323 324 325 326 327 326 325 326 328 330 332 333 334 336 339 340 340 339 340 341
242 243 245 246 249 251 254 256 259 263 268 272 277 281 287 291 294 298 301 304 310 315 317 318 319 321 323 323 323 323 323 325 327 328 330 332 334 334 335 336 337 338
242 245 247 248 250 252 253 254 256 261 266 270 275 280 285 289 293 296 298 299 303 309 313 314 315 317 319 319 320 320 320 321 323 325 327 329 329 329 331 333 335 336
244 248 251 253 255 256 257 257 257 259 263 269 273 277 281 286 290 294 297 297 298 303 308 310 312 313 315 316 317 317 317 319 321 324 325 326 326 325 327 330 332 334
250 252 254 257 259 260 262 262 262 262 264 268 271 274 277 281 286 290 293 294 295 299 303 306 308 310 311 312 314 314 314 316 319 321 323 325 324 323 325 328 331 332
254 256 257 259 260 262 264 265 266 267 267 268 269 271 274 277 281 285 288 290 293 296 299 302 304 306 307 309 311 311 312 315 317 318 320 323 323 322 323 326 329 331
256 258 260 261 263 264 265 266 267 268 269 269 269 270 272 274 278 282 285 288 292 294 297 298 299 301 303 306 308 309 310 313 316 317 317 321 322 321 322 324 327 329
257 259 261 263 264 266 267 268 269 269 269 269 270 271 272 274 276 280 284 288 292 294 295 295 296 299 301 303 305 307 309 311 315 315 317 320 320 320 321 323 326 328
258 260 262 264 266 267 269 270 270 270 270 270 271 272 273 274 276 280 284 288 291 293 293 293 295 298 300 302 304 305 307 310 313 314 316 318 319 318 319 322 325 327
259 261 263 265 267 268 269 270 271 272 272 273 273 274 275 275 277 280 284 287 290 291 291 293 296 298 300 301 303 304 306 308 310 312 314 316 317 317 318 321 323 326
260 262 264 265 266 268 269 270 271 272 273 273 273 274 275 276 278 280 283 286 288 290 291 293 295 297 299 301 302 303 304 306 308 310 312 314 315 316 318 320 322 324
260 262 264 264 265 267 268 269 271 271 272 272 272 272 274 276 278 280 282 285 288 289 291 293 295 296 298 300 302 303 303 304 306 308 310 312 313 314 317 319 321 323
259 261 262 263 264 266 267 268 269 270 270 271 271 271 272 274 276 279 281 284 287 289 291 292 293 295 297 299 301 301 301 302 304 306 308 310 311 313 316 318 320 322
258 259 261 262 264 265 266 267 268 269 269 269 270 270 271 273 275 278 280 283 286 288 290 291 293 294 296 298 299 299 300 301 303 305 306 308 310 312 314 316 318 320
260 260 261 262 264 265 266 267 268 269 269 269 270 271 272 274 276 278 280 283 285 288 289 290 292 294 296 297 297 298 299 300 302 304 305 306 308 310 312 314 316 318
261 261 261 262 263 264 265 266 267 268 269 270 271 272 273 275 277 279 281 283 285 287 288 290 292 293 295 296 296 297 298 299 301 303 304 305 306 308 310 312 314 316
261 262 262 262 263 264 265 266 267 268 269 270 271 273 274 276 277 279 281 283 285 286 288 290 292 293 294 294 294 295 297 298 300 301 302 303 304 306 308 310 312 314
261 263 262 262 262 264 265 266 267 269 270 271 272 273 274 275 277 278 280 282 284 286 288 290 291 291 292 292 293 294 295 297 298 299 300 301 302 304 306 308 311 312
261 263 263 263 263 264 265 267 268 269 270 271 272 273 274 275 277 278 279 281 284 285 287 287 288 289 290 291 292 293 294 295 296 297 298 299 300 302 304 307 310 310
261 263 265 265 265 265 265 267 268 269 270 271 272 273 274 275 276 277 279 280 282 283 284 285 286 288 289 289 290 291 292 293 294 295 296 297 299 301 304 307 308 308
261 263 265 266 266 266 266 267 268 269 270 271 272 274 275 275 276 277 278 279 280 282 283 283 285 286 287 287 288 289 290 291 292 293 294 296 298 301 303 306 306 306
262 262 263 265 266 267 267 267 267 268 269 271 273 274 275 275 276 277 278 278 280 281 281 282 283 284 285 286 286 288 289 290 292 293 294 295 297 300 302 304 304 304
265 264 265 265 266 267 268 268 268 268 269 271 272 273 274 275 276 277 278 278 279 279 280 280 281 282 283 284 285 286 287 289 291 292 292 294 296 298 301 302 302 303
267 268 268 268 268 267 268 268 269 270 270 270 270 271 272 273 274 275 275 276 277 277 278 279 280 281 282 282 283 285 286 288 289 289 290 292 294 296 298 299 300 301